Voltar ao catálogo

STARLINK-32545

AtivoComunicaçõesVLEO
NORAD 62135·PAYLOAD·🇺🇸 United States

Lançado Nov 27, 2024 de Cape Canaveral Space Force Station

Loading…

Próximas Passagens (próximas 24 horas)

TLE

AtualizadoSource: CelesTrak SupGP

Época: Sep 14, 2026, 23:00 UTC

1 62135C 24222X   26257.95881944  .00008320  00000+0  30159-3 0  2579
2 62135  42.9993 147.6868 0001744 273.2039 337.1840 15.27546338    18

Acompanhe STARLINK-32545 em tempo real com AllMySat

Download on the App Store